TimeHST,TemperatureF,Dew PointF,Humidity,Sea Level PressureIn,VisibilityMPH,Wind Direction,Wind SpeedMPH,Gust SpeedMPH,PrecipitationIn,Events,Conditions,WindDirDegrees,DateUTC
12:57 AM,77.0,73.0,88,29.94,10.0,NE,6.9,-,N/A,,Mostly Cloudy,40,2013-09-13 10:57:00
1:29 AM,77.0,73.4,89,29.94,6.2,ENE,4.6,-,N/A,,Overcast,60,2013-09-13 11:29:00
1:57 AM,77.0,73.9,90,29.92,5.0,NE,9.2,-,N/A,Rain,Rain,40,2013-09-13 11:57:00
2:37 AM,77.0,73.4,89,29.92,6.2,ENE,9.2,-,N/A,,Overcast,70,2013-09-13 12:37:00
2:57 AM,77.0,73.9,90,29.91,10.0,ESE,8.1,-,N/A,,Overcast,110,2013-09-13 12:57:00
3:22 AM,77.0,71.6,83,29.92,6.2,East,6.9,-,N/A,,Overcast,100,2013-09-13 13:22:00
3:57 AM,75.2,72.0,90,29.90,10.0,NE,5.8,-,N/A,,Mostly Cloudy,40,2013-09-13 13:57:00
4:32 AM,75.2,71.6,89,29.92,2.5,ENE,4.6,-,N/A,Rain,Heavy Rain,70,2013-09-13 14:32:00
4:42 AM,75.2,71.6,89,29.92,-9999.0,East,5.8,-,N/A,Rain,Light Rain,90,2013-09-13 14:42:00
4:57 AM,74.7,72.0,91,29.91,8.0,East,9.2,-,N/A,,Overcast,90,2013-09-13 14:57:00
5:16 AM,75.2,71.6,89,29.93,5.0,ESE,6.9,-,N/A,Rain,Light Rain,110,2013-09-13 15:16:00
5:24 AM,75.2,71.6,89,29.92,6.2,East,6.9,-,N/A,Rain,Light Rain,90,2013-09-13 15:24:00
5:57 AM,75.2,72.0,90,29.91,10.0,ENE,8.1,-,N/A,,Overcast,60,2013-09-13 15:57:00
6:04 AM,75.2,73.4,94,29.93,6.2,NE,6.9,-,N/A,,Overcast,50,2013-09-13 16:04:00
6:18 AM,75.2,73.4,94,29.93,6.2,NE,11.5,17.3,N/A,Rain,Light Rain,50,2013-09-13 16:18:00
6:47 AM,75.2,73.4,94,29.94,6.2,NE,10.4,18.4,N/A,Rain,Light Rain,50,2013-09-13 16:47:00
6:57 AM,75.2,73.0,93,29.92,10.0,NE,13.8,19.6,N/A,,Mostly Cloudy,50,2013-09-13 16:57:00
7:09 AM,-9999,-9999,N/A,29.94,6.2,NE,12.7,21.9,N/A,,Overcast,50,2013-09-13 17:09:00
7:16 AM,77.0,73.4,89,29.94,6.2,ENE,11.5,19.6,N/A,,Overcast,60,2013-09-13 17:16:00
7:57 AM,77.0,73.0,88,29.94,10.0,ENE,11.5,-,N/A,,Overcast,70,2013-09-13 17:57:00
8:57 AM,77.0,72.0,84,29.95,10.0,ENE,9.2,-,N/A,,Overcast,60,2013-09-13 18:57:00
9:57 AM,78.8,72.0,79,29.96,10.0,NE,8.1,-,N/A,Rain,Light Rain,50,2013-09-13 19:57:00
10:57 AM,78.8,71.1,77,29.95,4.0,North,6.9,-,N/A,Rain,Heavy Rain,10,2013-09-13 20:57:00
11:57 AM,78.8,71.1,77,29.92,10.0,East,6.9,-,N/A,,Mostly Cloudy,100,2013-09-13 21:57:00
12:08 PM,80.6,71.6,74,29.93,6.2,East,6.9,-,N/A,,Mostly Cloudy,80,2013-09-13 22:08:00
12:57 PM,80.6,72.0,75,29.90,10.0,ENE,8.1,-,N/A,,Mostly Cloudy,60,2013-09-13 22:57:00
1:57 PM,82.4,71.1,68,29.89,10.0,ENE,8.1,-,N/A,,Scattered Clouds,60,2013-09-13 23:57:00
2:57 PM,82.4,70.0,66,29.88,10.0,ENE,6.9,-,N/A,,Mostly Cloudy,60,2013-09-14 00:57:00
3:46 PM,82.4,71.6,70,29.89,6.2,ENE,6.9,-,N/A,,Mostly Cloudy,60,2013-09-14 01:46:00
3:57 PM,82.4,71.1,68,29.88,10.0,ENE,8.1,-,N/A,,Mostly Cloudy,60,2013-09-14 01:57:00
4:23 PM,80.6,69.8,70,29.89,6.2,ENE,9.2,-,N/A,,Mostly Cloudy,60,2013-09-14 02:23:00
4:57 PM,80.6,70.0,70,29.88,10.0,East,8.1,-,N/A,,Partly Cloudy,80,2013-09-14 02:57:00
5:57 PM,80.6,70.0,70,29.89,10.0,East,8.1,-,N/A,,Mostly Cloudy,80,2013-09-14 03:57:00
6:57 PM,80.6,71.1,73,29.91,10.0,East,4.6,-,N/A,,Mostly Cloudy,90,2013-09-14 04:57:00
7:57 PM,78.8,71.1,77,29.92,10.0,ENE,4.6,-,N/A,,Overcast,70,2013-09-14 05:57:00
8:57 PM,78.8,71.1,77,29.94,10.0,East,5.8,-,N/A,,Mostly Cloudy,80,2013-09-14 06:57:00
9:57 PM,77.0,70.0,79,29.94,10.0,ENE,5.8,-,N/A,,Scattered Clouds,70,2013-09-14 07:57:00
10:57 PM,75.2,71.1,87,29.93,10.0,ENE,8.1,-,N/A,,Mostly Cloudy,70,2013-09-14 08:57:00
11:57 PM,73.4,70.0,89,29.92,10.0,ENE,9.2,-,N/A,,Mostly Cloudy,60,2013-09-14 09:57:00